CT1ETE Weather Reports


time (UTC)temp
C
wind
direction
speed
KPH
gust
KPH
rain 1hr
cm
rain 24hr
cm
rain mn
cm
humidity
%
barometer
mb
20200220080308 7 133 0.0 0.0 0.00 0.00 0.00 77 1024.4
20200220074810 6 117 0.0 0.0 0.00 0.00 0.00 80 1024.0
20200220074802 7 130 0.0 0.0 0.00 0.00 0.00 79 1024.2
20200220073302 6 117 0.0 0.0 0.00 0.00 0.00 80 1024.0
20200220071756 6 121 0.0 0.0 0.00 0.00 0.00 80 1024.1
20200220071031 7 121 0.0 0.0 0.00 0.00 0.00 79 1024.1
20200220070256 7 121 0.0 0.0 0.00 0.00 0.00 79 1024.1
20200220064754 7 121 0.0 0.0 0.00 0.00 0.00 79 1024.0
20200220063254 7 132 0.0 0.0 0.00 0.00 0.00 79 1024.0
20200220061754 7 132 0.0 0.0 0.00 0.00 0.00 79 1024.0
20200220060252 7 132 0.0 0.0 0.00 0.00 0.00 79 1024.0
20200220054749 7 132 0.0 0.0 0.00 0.00 0.00 79 1024.0
20200220054026 7 132 0.0 0.0 0.00 0.00 0.00 78 1024.0
20200220053250 7 132 0.0 0.0 0.00 0.00 0.00 78 1024.0
20200220051749 7 132 0.0 0.0 0.00 0.00 0.00 79 1023.9
20200220050244 7 132 0.0 0.0 0.00 0.00 0.00 79 1023.9
20200220045524 7 93 0.0 0.0 0.00 0.00 0.00 77 1024.0
20200220044744 7 93 0.0 0.0 0.00 0.00 0.00 77 1024.0
20200220043244 7 93 0.0 0.0 0.00 0.00 0.00 77 1024.0
20200220042517 7 93 0.0 0.0 0.00 0.00 0.00 77 1024.0
20200220041739 7 93 0.0 0.0 0.00 0.00 0.00 77 1024.0
20200220040239 8 130 0.0 0.0 0.00 0.00 0.00 74 1024.1
20200220034736 8 130 0.0 0.0 0.00 0.00 0.00 73 1024.3
20200220034017 8 130 0.0 0.0 0.00 0.00 0.00 74 1024.4
20200220033248 8 130 0.0 0.0 0.00 0.00 0.00 76 1024.5
20200220033236 8 130 0.0 0.0 0.00 0.00 0.00 74 1024.4
20200220031747 8 130 0.0 0.0 0.00 0.00 0.00 78 1024.8
20200220031732 8 130 0.0 0.0 0.00 0.00 0.00 76 1024.5
20200220030231 8 130 0.0 0.0 0.00 0.00 0.00 78 1024.8
20200220025519 8 130 0.0 0.0 0.00 0.00 0.00 79 1025.0
20200220024731 8 130 0.0 0.0 0.00 0.00 0.00 78 1024.9
20200220023231 8 130 0.0 0.0 0.00 0.00 0.00 79 1025.0
20200220021725 8 130 0.0 0.0 0.00 0.00 0.00 80 1025.0
20200220021024 8 98 0.0 0.0 0.00 0.00 0.00 77 1025.0
20200220020224 8 130 0.0 0.0 0.00 0.00 0.00 80 1025.0
20200220014829 8 91 0.0 0.0 0.00 0.00 0.00 76 1025.0
20200220014720 8 98 0.0 0.0 0.00 0.00 0.00 77 1025.0
20200220013218 8 91 0.0 0.0 0.00 0.00 0.00 76 1025.0
20200220012455 8 98 0.0 0.0 0.00 0.00 0.00 77 1025.3
20200220011719 8 98 0.0 0.0 0.00 0.00 0.00 77 1025.3
20200220010219 8 131 0.0 0.0 0.00 0.00 0.00 77 1025.5
20200220004719 8 131 0.0 0.0 0.00 0.00 0.00 80 1025.6
20200220003218 8 110 0.0 0.0 0.00 0.00 0.00 77 1025.8
20200220002454 8 108 0.0 0.0 0.00 0.00 0.00 77 1025.7
20200220001717 8 108 0.0 0.0 0.00 0.00 0.00 77 1025.7
20200220000956 9 135 0.0 0.0 0.00 0.00 0.00 78 1026.0
20200220000217 9 135 0.0 0.0 0.00 0.00 0.00 78 1025.9
20200219234716 9 135 0.0 0.0 0.00 0.00 0.00 78 1026.0
20200219233213 9 130 0.0 0.0 0.00 0.00 0.00 78 1026.1
20200219232453 9 121 0.0 4.8 0.00 0.00 0.00 79 1026.3
20200219231714 9 127 0.0 0.0 0.00 0.00 0.00 79 1026.2
20200219230213 9 121 0.0 4.8 0.00 0.00 0.00 79 1026.3
20200219225448 10 128 0.0 6.4 0.00 0.00 0.00 78 1026.4
20200219224713 10 128 0.0 6.4 0.00 0.00 0.00 78 1026.4
20200219223213 9 138 1.6 11.3 0.00 0.00 0.00 77 1026.6
20200219222448 9 111 0.0 0.0 0.00 0.00 0.00 77 1026.8
20200219221713 9 111 0.0 0.0 0.00 0.00 0.00 77 1026.8
20200219220953 10 104 0.0 0.0 0.00 0.00 0.00 74 1027.1
20200219220213 9 100 0.0 0.0 0.00 0.00 0.00 75 1026.9
20200219214707 10 104 0.0 0.0 0.00 0.00 0.00 74 1027.1
20200219213215 10 235 0.0 0.0 0.00 0.00 0.00 72 1027.3
20200219213207 10 136 0.0 0.0 0.00 0.00 0.00 74 1027.3
20200219211701 10 235 0.0 0.0 0.00 0.00 0.00 72 1027.3
20200219210201 10 236 0.0 0.0 0.00 0.00 0.00 71 1027.4
20200219204654 10 236 0.0 0.0 0.00 0.00 0.00 69 1027.4
20200219203204 11 236 0.0 0.0 0.00 0.00 0.00 66 1027.5
20200219203155 11 236 0.0 0.0 0.00 0.00 0.00 68 1027.5
20200219201649 11 236 0.0 0.0 0.00 0.00 0.00 66 1027.5
20200219200148 11 236 0.0 0.0 0.00 0.00 0.00 65 1027.5
20200219194643 11 236 0.0 0.0 0.00 0.00 0.00 66 1027.5
20200219193142 11 236 0.0 0.0 0.00 0.00 0.00 65 1027.6
20200219191637 12 236 0.0 0.0 0.00 0.00 0.00 63 1027.6
20200219190137 12 239 0.0 0.0 0.00 0.00 0.00 61 1027.7
20200219184641 13 294 0.0 0.0 0.00 0.00 0.00 56 1027.7
20200219184631 12 294 0.0 0.0 0.00 0.00 0.00 61 1027.6
20200219183130 13 294 0.0 0.0 0.00 0.00 0.00 58 1027.6
20200219181635 13 294 0.0 0.0 0.00 0.00 0.00 55 1027.6
20200219181629 13 294 0.0 0.0 0.00 0.00 0.00 56 1027.7
20200219180127 13 294 0.0 0.0 0.00 0.00 0.00 55 1027.6
20200219174627 14 294 0.0 0.0 0.00 0.00 0.00 53 1027.9
20200219173900 14 294 0.0 0.0 0.00 0.00 0.00 50 1027.9
20200219173124 14 294 0.0 0.0 0.00 0.00 0.00 50 1027.9
20200219171624 14 284 1.6 8.0 0.00 0.00 0.00 49 1027.9
20200219170901 15 294 0.0 4.8 0.00 0.00 0.00 50 1028.0
20200219170125 15 294 0.0 4.8 0.00 0.00 0.00 50 1028.0
20200219165404 15 227 0.0 6.4 0.00 0.00 0.00 48 1028.1
20200219164624 15 267 1.6 3.2 0.00 0.00 0.00 49 1028.0
20200219163125 15 227 0.0 6.4 0.00 0.00 0.00 48 1028.1
20200219162402 15 290 1.6 4.8 0.00 0.00 0.00 49 1028.3
20200219162357 15 229 1.6 4.8 0.00 0.00 0.00 48 1028.2
20200219161622 15 229 1.6 4.8 0.00 0.00 0.00 48 1028.2
20200219160122 15 290 1.6 4.8 0.00 0.00 0.00 49 1028.3
20200219154623 15 305 3.2 6.4 0.00 0.00 0.00 48 1028.4
20200219153122 15 281 1.6 6.4 0.00 0.00 0.00 47 1028.7
20200219151623 16 306 0.0 4.8 0.00 0.00 0.00 49 1028.8
20200219150123 16 285 1.6 4.8 0.00 0.00 0.00 49 1029.0
20200219145358 16 271 1.6 3.2 0.00 0.00 0.00 48 1029.3
20200219144622 16 271 1.6 3.2 0.00 0.00 0.00 48 1029.3
20200219143859 16 150 0.0 3.2 0.00 0.00 0.00 44 1029.4
20200219143123 16 150 0.0 3.2 0.00 0.00 0.00 44 1029.4
20200219141624 16 306 0.0 3.2 0.00 0.00 0.00 48 1029.8
20200219141616 16 140 0.0 4.8 0.00 0.00 0.00 44 1029.6
20200219140112 16 306 0.0 3.2 0.00 0.00 0.00 48 1029.8
20200219134613 15 240 0.0 4.8 0.00 0.00 0.00 49 1030.0
20200219133848 15 169 0.0 3.2 0.00 0.00 0.00 50 1030.2
20200219133112 15 169 0.0 3.2 0.00 0.00 0.00 50 1030.2
20200219131612 15 99 0.0 4.8 0.00 0.00 0.00 49 1030.4
20200219130110 15 126 1.6 6.4 0.00 0.00 0.00 49 1030.7
20200219124608 15 171 0.0 3.2 0.00 0.00 0.00 52 1031.2
20200219123842 14 275 0.0 3.2 0.00 0.00 0.00 52 1031.6
20200219123113 13 342 0.0 0.0 0.00 0.00 0.00 54 1031.9
20200219123108 14 275 0.0 3.2 0.00 0.00 0.00 52 1031.6
20200219121602 13 342 0.0 0.0 0.00 0.00 0.00 54 1031.9
20200219120102 13 49 0.0 0.0 0.00 0.00 0.00 54 1032.2
20200219115332 13 30 0.0 0.0 0.00 0.00 0.00 53 1032.4
20200219114556 13 30 0.0 0.0 0.00 0.00 0.00 53 1032.4
20200219113056 13 49 0.0 0.0 0.00 0.00 0.00 54 1032.5
20200219112325 13 45 0.0 0.0 0.00 0.00 0.00 54 1032.5
20200219111550 13 45 0.0 0.0 0.00 0.00 0.00 54 1032.5
20200219110050 12 75 0.0 0.0 0.00 0.00 0.00 56 1032.6
20200219104544 12 119 0.0 1.6 0.00 0.00 0.00 58 1032.6
20200219103044 11 69 1.6 17.7 0.00 0.00 0.00 58 1032.6
20200219101545 11 88 3.2 12.9 0.00 0.00 0.00 58 1032.8
20200219100044 11 95 4.8 17.7 0.00 0.00 0.00 61 1032.7
20200219094544 10 85 3.2 19.3 0.00 0.00 0.00 61 1032.8
20200219093835 9 123 1.6 17.7 0.00 0.00 0.00 63 1032.8
20200219093044 10 103 4.8 16.1 0.00 0.00 0.00 62 1032.8
20200219091543 9 123 1.6 17.7 0.00 0.00 0.00 63 1032.8
20200219090814 9 121 4.8 22.5 0.00 0.00 0.00 63 1032.7
20200219090038 9 121 4.8 22.5 0.00 0.00 0.00 63 1032.7
20200219085427 8 87 3.2 17.7 0.00 0.00 0.00 67 1032.6
20200219085314 8 142 1.6 9.7 0.00 0.00 0.00 65 1032.9
20200219084538 8 142 1.6 9.7 0.00 0.00 0.00 65 1032.9
20200219083808 8 146 3.2 14.5 0.00 0.00 0.00 67 1032.8
20200219083032 8 146 3.2 14.5 0.00 0.00 0.00 67 1032.8
20200219081532 8 87 3.2 17.7 0.00 0.00 0.00 67 1032.6